{"data":{"norad_id":63071,"epoch":"2026-09-20T23:18:23.912640Z","epoch_age_seconds":121556,"freshness":"FRESH","line1":"1 63071U 25035V   26263.97111010  .00035412  00000+0  99210-3 0  9999","line2":"2 63071  42.9974 117.4620 0010352 248.4565 111.5187 15.35943896 89565","mean_motion":15.35943896,"eccentricity":0.0010352,"inclination_deg":42.9974,"raan_deg":117.462,"arg_perigee_deg":248.4565,"mean_anomaly_deg":111.5187,"bstar":0.0009921,"rev_number":8956,"period_min":93.753424441488,"perigee_km":451.04140866148,"apogee_km":465.19519163491,"semimajor_km":6836.2553001482,"source":"CELESTRAK","updated_at":"2026-09-22T09:00:49.755038Z"}}